{"data":{"norad_id":41903,"intl_designator":"2016-082A","name":"JCSAT-110A (JCSAT-15)","alt_names":[],"object_type":"PAYLOAD","status":"ACTIVE","operator":null,"country":"JPN","launch_date":"2016-12-21","launch_site_code":"FRGUI","launch_vehicle":null,"mission":null,"orbit_class":"UNKNOWN","rcs_meters":71.039,"size_class":null,"mass_kg":null,"dimensions":null,"purposes":["comms"],"wikipedia_slug":null,"has_3d_model":false,"image_url":null,"decayed_at":null,"tle_current":{"epoch":"2026-09-19T14:51:04.886784Z","epoch_age_seconds":103276,"freshness":"FRESH","line1":"1 41903U 16082A   26262.61880656 -.00000355  00000+0  00000+0 0  9994","line2":"2 41903   0.0188 159.0408 0000644  17.4514 154.8844  1.00270895 35700","mean_motion":1.00270895,"eccentricity":6.44e-5,"inclination_deg":0.0188,"raan_deg":159.0408,"arg_perigee_deg":17.4514,"mean_anomaly_deg":154.8844,"bstar":0,"rev_number":3570,"period_min":1436.1096507616,"perigee_km":35784.129037538,"apogee_km":35789.55988715,"semimajor_km":42164.981462344,"source":"CELESTRAK","updated_at":"2026-09-20T09:00:35.250117Z"}}}